| time (UTC) | temp C | wind direction | speed KPH | gust KPH | rain 1hr cm | rain 24hr cm | rain mn cm | humidity % | barometer mb |
| 20260902060036 | 16 | 137 | 1.6 | 4.8 | 0.00 | 0.00 | 0.00 | 75 | 1012.5 |
| 20260902054524 | 16 | 112 | 0.0 | 4.8 | 0.00 | 0.00 | 0.00 | 75 | 1012.5 |
| 20260902053032 | 16 | 121 | 0.0 | 4.8 | 0.00 | 0.00 | 0.00 | 75 | 1012.5 |
| 20260902051522 | 16 | 126 | 1.6 | 4.8 | 0.00 | 0.00 | 0.00 | 74 | 1012.6 |
| 20260902050024 | 16 | 136 | 0.0 | 0.0 | 0.00 | 0.00 | 0.00 | 73 | 1012.6 |
| 20260902044556 | 16 | 172 | 0.0 | 0.0 | 0.00 | 0.00 | 0.00 | 72 | 1012.6 |
| 20260902043031 | 16 | 171 | 0.0 | 1.6 | 0.00 | 0.00 | 0.00 | 72 | 1012.7 |
| 20260902041533 | 16 | 225 | 0.0 | 3.2 | 0.00 | 0.00 | 0.00 | 72 | 1012.7 |
| 20260902040029 | 16 | 175 | 0.0 | 3.2 | 0.00 | 0.00 | 0.00 | 72 | 1012.7 |
| 20260902034504 | 17 | 122 | 0.0 | 1.6 | 0.00 | 0.00 | 0.00 | 72 | 1012.7 |
| 20260902033009 | 17 | 143 | 0.0 | 3.2 | 0.00 | 0.00 | 0.00 | 71 | 1012.6 |
| 20260902031536 | 17 | 194 | 0.0 | 4.8 | 0.00 | 0.00 | 0.00 | 70 | 1012.5 |
| 20260902030018 | 17 | 184 | 0.0 | 4.8 | 0.00 | 0.00 | 0.00 | 69 | 1012.6 |
| 20260902024525 | 17 | 184 | 1.6 | 4.8 | 0.00 | 0.00 | 0.00 | 68 | 1012.5 |
| 20260902023014 | 18 | 112 | 1.6 | 11.3 | 0.00 | 0.00 | 0.00 | 67 | 1012.3 |
| 20260902021512 | 18 | 130 | 3.2 | 6.4 | 0.00 | 0.00 | 0.00 | 67 | 1012.4 |
| 20260902020022 | 18 | 195 | 3.2 | 9.7 | 0.00 | 0.00 | 0.00 | 67 | 1012.3 |
| 20260902014526 | 18 | 171 | 4.8 | 17.7 | 0.00 | 0.00 | 0.00 | 65 | 1012.3 |
| 20260902013004 | 18 | 198 | 1.6 | 12.9 | 0.00 | 0.00 | 0.00 | 66 | 1012.2 |
| 20260902011516 | 18 | 204 | 4.8 | 14.5 | 0.00 | 0.00 | 0.00 | 67 | 1012.2 |
| 20260902010015 | 18 | 178 | 4.8 | 16.1 | 0.00 | 0.00 | 0.00 | 68 | 1012.2 |
| 20260902004523 | 18 | 206 | 4.8 | 16.1 | 0.00 | 0.00 | 0.00 | 69 | 1012.1 |
| 20260902003030 | 18 | 132 | 4.8 | 9.7 | 0.00 | 0.00 | 0.00 | 69 | 1012.2 |
| 20260902001509 | 18 | 176 | 1.6 | 14.5 | 0.00 | 0.00 | 0.00 | 70 | 1012.1 |
| 20260902000011 | 18 | 231 | 4.8 | 19.3 | 0.00 | 0.00 | 0.00 | 69 | 1012.0 |
| 20260901234519 | 18 | 216 | 3.2 | 12.9 | 0.00 | 0.00 | 0.00 | 69 | 1012.0 |
| 20260901233029 | 18 | 155 | 8.0 | 17.7 | 0.00 | 0.00 | 0.00 | 70 | 1012.1 |
| 20260901231535 | 18 | 145 | 6.4 | 20.9 | 0.00 | 0.00 | 0.00 | 71 | 1012.1 |
| 20260901230010 | 17 | 205 | 4.8 | 14.5 | 0.00 | 0.00 | 0.00 | 73 | 1012.2 |
| 20260901224517 | 17 | 181 | 3.2 | 12.9 | 0.00 | 0.00 | 0.00 | 75 | 1012.3 |
| 20260901223021 | 18 | 193 | 0.0 | 4.8 | 0.00 | 0.00 | 0.00 | 74 | 1012.2 |
| 20260901221526 | 18 | 195 | 1.6 | 4.8 | 0.00 | 0.00 | 0.00 | 73 | 1012.4 |
| 20260901220008 | 19 | 315 | 0.0 | 8.0 | 0.00 | 0.00 | 0.00 | 67 | 1012.1 |
| 20260901214515 | 19 | 80 | 1.6 | 8.0 | 0.00 | 0.00 | 0.00 | 67 | 1012.0 |
| 20260901213025 | 19 | 187 | 1.6 | 8.0 | 0.00 | 0.00 | 0.00 | 68 | 1012.0 |
| 20260901211528 | 19 | 229 | 3.2 | 8.0 | 0.00 | 0.00 | 0.00 | 66 | 1012.0 |
| 20260901210029 | 19 | 102 | 1.6 | 11.3 | 0.00 | 0.00 | 0.00 | 64 | 1011.9 |
| 20260901204516 | 19 | 132 | 3.2 | 11.3 | 0.00 | 0.00 | 0.00 | 65 | 1012.0 |
| 20260901203019 | 19 | 104 | 0.0 | 6.4 | 0.00 | 0.00 | 0.00 | 67 | 1012.2 |
| 20260901201522 | 18 | 57 | 4.8 | 9.7 | 0.00 | 0.00 | 0.00 | 67 | 1012.2 |
| 20260901200028 | 18 | 120 | 3.2 | 11.3 | 0.00 | 0.00 | 0.00 | 68 | 1012.4 |
| 20260901194531 | 18 | 113 | 1.6 | 11.3 | 0.00 | 0.00 | 0.00 | 69 | 1012.3 |
| 20260901193014 | 18 | 105 | 1.6 | 6.4 | 0.00 | 0.00 | 0.00 | 70 | 1012.5 |
| 20260901191523 | 18 | 196 | 0.0 | 8.0 | 0.00 | 0.00 | 0.00 | 72 | 1012.5 |
| 20260901190030 | 18 | 113 | 3.2 | 8.0 | 0.00 | 0.00 | 0.00 | 71 | 1012.7 |
| 20260901184509 | 18 | 176 | 0.0 | 6.4 | 0.00 | 0.00 | 0.00 | 73 | 1012.8 |
| 20260901183022 | 18 | 14 | 1.6 | 6.4 | 0.00 | 0.00 | 0.00 | 73 | 1012.8 |
| 20260901181521 | 18 | 40 | 1.6 | 8.0 | 0.00 | 0.00 | 0.00 | 73 | 1012.8 |
| 20260901180001 | 18 | 38 | 1.6 | 9.7 | 0.00 | 0.00 | 0.00 | 75 | 1012.8 |
| 20260901174505 | 18 | 35 | 0.0 | 6.4 | 0.00 | 0.00 | 0.00 | 75 | 1012.9 |
| 20260901173012 | 18 | 209 | 1.6 | 8.0 | 0.00 | 0.00 | 0.00 | 74 | 1012.8 |
| 20260901171519 | 17 | 5 | 0.0 | 6.4 | 0.00 | 0.00 | 0.00 | 76 | 1012.9 |
| 20260901170004 | 17 | 117 | 1.6 | 6.4 | 0.00 | 0.00 | 0.00 | 76 | 1012.8 |
| 20260901164506 | 16 | 117 | 1.6 | 3.2 | 0.00 | 0.00 | 0.00 | 78 | 1012.8 |
| 20260901163011 | 16 | 158 | 1.6 | 11.3 | 0.00 | 0.00 | 0.00 | 79 | 1013.0 |
| 20260901161517 | 16 | 168 | 1.6 | 11.3 | 0.00 | 0.00 | 0.00 | 80 | 1013.1 |
| 20260901160022 | 15 | 84 | 0.0 | 4.8 | 0.00 | 0.00 | 0.00 | 83 | 1013.0 |
| 20260901154501 | 15 | 140 | 0.0 | 6.4 | 0.00 | 0.00 | 0.00 | 84 | 1013.0 |
| 20260901153007 | 14 | 132 | 0.0 | 6.4 | 0.00 | 0.00 | 0.00 | 85 | 1013.0 |
| 20260901151516 | 13 | 152 | 0.0 | 0.0 | 0.00 | 0.00 | 0.00 | 87 | 1013.0 |
| 20260901150020 | 13 | 254 | 0.0 | 0.0 | 0.00 | 0.00 | 0.00 | 88 | 1012.9 |
| 20260901144526 | 13 | 284 | 0.0 | 0.0 | 0.00 | 0.00 | 0.00 | 88 | 1012.8 |
| 20260901143012 | 13 | 284 | 0.0 | 0.0 | 0.00 | 0.00 | 0.00 | 88 | 1012.8 |
| 20260901141510 | 12 | 284 | 0.0 | 0.0 | 0.00 | 0.00 | 0.00 | 88 | 1012.7 |
| 20260901140022 | 12 | 284 | 0.0 | 0.0 | 0.00 | 0.00 | 0.00 | 89 | 1012.6 |
| 20260901134525 | 12 | 284 | 0.0 | 0.0 | 0.00 | 0.00 | 0.00 | 89 | 1012.4 |
| 20260901133034 | 12 | 284 | 0.0 | 0.0 | 0.00 | 0.00 | 0.00 | 89 | 1012.5 |
| 20260901131510 | 12 | 284 | 0.0 | 0.0 | 0.00 | 0.00 | 0.00 | 89 | 1012.4 |
| 20260901130020 | 12 | 284 | 0.0 | 1.6 | 0.00 | 0.00 | 0.00 | 89 | 1012.4 |
| 20260901124524 | 12 | 267 | 0.0 | 0.0 | 0.00 | 0.00 | 0.00 | 90 | 1012.3 |
| 20260901123033 | 12 | 237 | 0.0 | 0.0 | 0.00 | 0.00 | 0.00 | 90 | 1012.3 |
| 20260901121514 | 12 | 237 | 0.0 | 0.0 | 0.00 | 0.00 | 0.00 | 91 | 1012.3 |
| 20260901120015 | 12 | 237 | 0.0 | 0.0 | 0.00 | 0.00 | 0.00 | 91 | 1012.3 |
| 20260901114522 | 11 | 238 | 1.6 | 3.2 | 0.00 | 0.00 | 0.00 | 91 | 1012.2 |
| 20260901113026 | 11 | 245 | 0.0 | 3.2 | 0.00 | 0.00 | 0.00 | 92 | 1012.2 |
| 20260901111530 | 11 | 234 | 0.0 | 3.2 | 0.00 | 0.00 | 0.00 | 92 | 1012.1 |
| 20260901110010 | 10 | 244 | 0.0 | 0.0 | 0.00 | 0.00 | 0.00 | 90 | 1011.8 |
| 20260901104521 | 11 | 244 | 0.0 | 0.0 | 0.00 | 0.00 | 0.00 | 90 | 1011.7 |
| 20260901103026 | 11 | 244 | 0.0 | 0.0 | 0.00 | 0.00 | 0.00 | 89 | 1011.7 |
| 20260901101530 | 11 | 244 | 0.0 | 0.0 | 0.00 | 0.00 | 0.00 | 89 | 1011.6 |
| 20260901100032 | 11 | 256 | 0.0 | 0.0 | 0.00 | 0.00 | 0.00 | 88 | 1011.6 |
| 20260901094515 | 11 | 256 | 0.0 | 0.0 | 0.00 | 0.00 | 0.00 | 87 | 1011.6 |
| 20260901093021 | 12 | 272 | 0.0 | 0.0 | 0.00 | 0.00 | 0.00 | 87 | 1011.5 |
| 20260901091527 | 12 | 272 | 0.0 | 0.0 | 0.00 | 0.00 | 0.00 | 87 | 1011.4 |
| 20260901090032 | 12 | 272 | 0.0 | 0.0 | 0.00 | 0.00 | 0.00 | 85 | 1011.1 |
| 20260901084533 | 13 | 267 | 0.0 | 0.0 | 0.00 | 0.00 | 0.00 | 85 | 1010.9 |
| 20260901083017 | 13 | 217 | 0.0 | 0.0 | 0.00 | 0.00 | 0.00 | 84 | 1011.0 |
| 20260901081524 | 14 | 163 | 0.0 | 8.0 | 0.00 | 0.00 | 0.00 | 83 | 1011.0 |
| 20260901080030 | 14 | 146 | 3.2 | 6.4 | 0.00 | 0.00 | 0.00 | 83 | 1010.9 |
| 20260901074511 | 14 | 129 | 1.6 | 8.0 | 0.00 | 0.00 | 0.00 | 83 | 1010.8 |
| 20260901073015 | 14 | 98 | 0.0 | 4.8 | 0.00 | 0.00 | 0.00 | 83 | 1010.8 |
| 20260901071521 | 14 | 85 | 1.6 | 6.4 | 0.00 | 0.00 | 0.00 | 83 | 1010.7 |
| 20260901070026 | 14 | 121 | 1.6 | 9.7 | 0.00 | 0.00 | 0.00 | 82 | 1010.6 |
| 20260901064508 | 15 | 82 | 0.0 | 4.8 | 0.00 | 0.00 | 0.00 | 81 | 1010.4 |
| 20260901063019 | 15 | 51 | 0.0 | 3.2 | 0.00 | 0.00 | 0.00 | 80 | 1010.3 |
| 20260901061519 | 15 | 128 | 0.0 | 4.8 | 0.00 | 0.00 | 0.00 | 80 | 1010.1 |